TimeEDT,TemperatureF,Dew PointF,Humidity,Sea Level PressureIn,VisibilityMPH,Wind Direction,Wind SpeedMPH,Gust SpeedMPH,PrecipitationIn,Events,Conditions,WindDirDegrees,DateUTC
12:15 AM,68.0,64.4,88,30.02,10.0,Calm,Calm,-,N/A,,Overcast,0,2013-10-16 04:15:00
12:35 AM,68.0,64.4,88,30.02,10.0,Calm,Calm,-,N/A,,Mostly Cloudy,0,2013-10-16 04:35:00
12:53 AM,69.1,64.9,87,30.01,-9999.0,Calm,Calm,-,N/A,,Unknown,0,2013-10-16 04:53:00
12:55 AM,68.0,64.4,88,30.02,10.0,Calm,Calm,-,N/A,,Scattered Clouds,0,2013-10-16 04:55:00
1:15 AM,66.2,64.4,94,30.01,7.0,NNE,3.5,-,N/A,,Mostly Cloudy,20,2013-10-16 05:15:00
1:35 AM,66.2,64.4,94,30.01,7.0,Calm,Calm,-,N/A,,Overcast,0,2013-10-16 05:35:00
1:53 AM,69.1,64.9,87,30.00,-9999.0,Calm,Calm,-,N/A,,Unknown,0,2013-10-16 05:53:00
1:55 AM,68.0,64.4,88,30.01,10.0,Calm,Calm,-,N/A,,Overcast,0,2013-10-16 05:55:00
2:15 AM,68.0,64.4,88,30.01,10.0,Calm,Calm,-,N/A,,Overcast,0,2013-10-16 06:15:00
2:35 AM,68.0,64.4,88,30.01,10.0,Calm,Calm,-,N/A,,Overcast,0,2013-10-16 06:35:00
2:53 AM,69.1,64.9,87,29.99,-9999.0,Calm,Calm,-,N/A,,Unknown,0,2013-10-16 06:53:00
2:55 AM,68.0,64.4,88,30.01,10.0,Calm,Calm,-,N/A,,Overcast,0,2013-10-16 06:55:00
3:15 AM,68.0,62.6,83,30.00,10.0,Calm,Calm,-,N/A,,Overcast,0,2013-10-16 07:15:00
3:35 AM,68.0,62.6,83,30.00,7.0,Calm,Calm,-,N/A,,Drizzle,0,2013-10-16 07:35:00
3:53 AM,68.0,64.0,87,29.98,-9999.0,NNE,3.5,-,0.01,,Unknown,30,2013-10-16 07:53:00
3:55 AM,66.2,62.6,88,30.00,5.0,NNE,3.5,-,N/A,,Drizzle,30,2013-10-16 07:55:00
4:15 AM,66.2,62.6,88,29.98,7.0,NE,3.5,-,N/A,,Light Drizzle,50,2013-10-16 08:15:00
4:35 AM,66.2,62.6,88,29.98,10.0,East,3.5,-,N/A,,Overcast,80,2013-10-16 08:35:00
4:53 AM,68.0,64.0,87,29.97,-9999.0,Calm,Calm,-,N/A,,Unknown,0,2013-10-16 08:53:00
4:55 AM,66.2,62.6,88,29.98,10.0,Calm,Calm,-,N/A,,Overcast,0,2013-10-16 08:55:00
5:15 AM,64.4,62.6,94,29.97,10.0,Calm,Calm,-,N/A,,Mostly Cloudy,0,2013-10-16 09:15:00
5:35 AM,64.4,62.6,94,29.97,5.0,Calm,Calm,-,N/A,,Scattered Clouds,0,2013-10-16 09:35:00
5:53 AM,64.9,62.1,90,29.96,-9999.0,Calm,Calm,-,N/A,,Unknown,0,2013-10-16 09:53:00
5:55 AM,62.6,62.6,100,29.97,1.8,Calm,Calm,-,N/A,,Mist,0,2013-10-16 09:55:00
6:15 AM,62.6,60.8,94,29.98,3.0,NNW,3.5,-,N/A,,Clear,330,2013-10-16 10:15:00
6:35 AM,62.6,60.8,94,29.99,3.0,Calm,Calm,-,N/A,,Clear,0,2013-10-16 10:35:00
6:53 AM,64.9,62.1,90,29.98,-9999.0,Calm,Calm,-,N/A,,Unknown,0,2013-10-16 10:53:00
6:55 AM,62.6,62.6,100,30.00,2.5,Calm,Calm,-,N/A,,Clear,0,2013-10-16 10:55:00
7:15 AM,62.6,60.8,94,30.00,1.0,Calm,Calm,-,N/A,,Mist,0,2013-10-16 11:15:00
7:35 AM,60.8,60.8,100,30.01,0.2,Calm,Calm,-,N/A,Fog,Fog,0,2013-10-16 11:35:00
7:53 AM,63.0,62.1,97,30.00,-9999.0,Calm,Calm,-,N/A,,Unknown,0,2013-10-16 11:53:00
7:55 AM,60.8,60.8,100,30.01,0.8,Calm,Calm,-,N/A,,Overcast,0,2013-10-16 11:55:00
8:15 AM,62.6,62.6,100,30.02,5.0,Calm,Calm,-,N/A,,Overcast,0,2013-10-16 12:15:00
8:35 AM,64.4,62.6,94,30.02,7.0,Calm,Calm,-,N/A,,Overcast,0,2013-10-16 12:35:00
8:53 AM,69.1,63.0,81,30.02,-9999.0,North,3.5,-,N/A,,Unknown,10,2013-10-16 12:53:00
8:55 AM,64.4,62.6,94,30.03,10.0,North,4.6,-,N/A,,Overcast,10,2013-10-16 12:55:00
9:15 AM,66.2,64.4,94,30.03,10.0,Calm,Calm,-,N/A,,Overcast,0,2013-10-16 13:15:00
9:35 AM,68.0,62.6,83,30.03,10.0,NNE,4.6,-,N/A,,Mostly Cloudy,30,2013-10-16 13:35:00
9:53 AM,71.1,63.0,75,30.02,-9999.0,ENE,3.5,-,N/A,,Unknown,60,2013-10-16 13:53:00
9:55 AM,68.0,62.6,83,30.03,10.0,NE,3.5,-,N/A,,Mostly Cloudy,40,2013-10-16 13:55:00
10:15 AM,69.8,62.6,78,30.03,10.0,NNE,4.6,-,N/A,,Overcast,20,2013-10-16 14:15:00
10:35 AM,69.8,62.6,78,30.04,10.0,ENE,4.6,-,N/A,,Overcast,60,2013-10-16 14:35:00
10:53 AM,73.9,64.0,71,30.02,-9999.0,Variable,3.5,-,N/A,,Unknown,0,2013-10-16 14:53:00
10:55 AM,71.6,64.4,78,30.03,10.0,ENE,4.6,-,N/A,,Overcast,60,2013-10-16 14:55:00
11:15 AM,71.6,64.4,78,30.03,10.0,East,3.5,-,N/A,,Overcast,90,2013-10-16 15:15:00
11:35 AM,73.4,64.4,73,30.03,10.0,Calm,Calm,-,N/A,,Overcast,0,2013-10-16 15:35:00
11:53 AM,77.0,64.0,64,30.02,-9999.0,NE,5.8,-,0.01,,Unknown,40,2013-10-16 15:53:00
11:55 AM,73.4,64.4,73,30.03,10.0,NE,3.5,-,N/A,,Overcast,40,2013-10-16 15:55:00
12:15 PM,75.2,62.6,65,30.02,10.0,Calm,Calm,-,N/A,,Overcast,0,2013-10-16 16:15:00
12:35 PM,77.0,62.6,61,30.02,10.0,Calm,Calm,-,N/A,,Overcast,0,2013-10-16 16:35:00
12:53 PM,80.1,64.0,58,30.00,-9999.0,NW,4.6,-,0.01,,Unknown,310,2013-10-16 16:53:00
12:55 PM,77.0,62.6,61,30.01,10.0,NW,5.8,-,N/A,,Overcast,310,2013-10-16 16:55:00
1:15 PM,78.8,62.6,57,30.00,10.0,Calm,Calm,-,N/A,,Scattered Clouds,0,2013-10-16 17:15:00
1:35 PM,80.6,62.6,54,29.99,10.0,North,5.8,-,N/A,,Clear,10,2013-10-16 17:35:00
1:53 PM,82.9,64.9,54,29.97,-9999.0,Calm,Calm,-,N/A,,Unknown,0,2013-10-16 17:53:00
1:55 PM,80.6,64.4,58,29.98,10.0,NNW,3.5,-,N/A,,Scattered Clouds,340,2013-10-16 17:55:00
2:15 PM,80.6,62.6,54,29.97,10.0,Calm,Calm,-,N/A,,Scattered Clouds,0,2013-10-16 18:15:00
2:35 PM,78.8,62.6,57,29.97,10.0,NE,3.5,-,N/A,,Mostly Cloudy,40,2013-10-16 18:35:00
2:53 PM,82.9,64.9,54,29.95,-9999.0,Variable,5.8,-,N/A,,Unknown,0,2013-10-16 18:53:00
2:55 PM,78.8,62.6,57,29.95,10.0,NNW,8.1,-,N/A,,Mostly Cloudy,330,2013-10-16 18:55:00
3:15 PM,80.6,62.6,54,29.96,10.0,NNE,4.6,-,N/A,,Overcast,20,2013-10-16 19:15:00
3:35 PM,80.6,64.4,58,29.95,10.0,NNW,3.5,-,N/A,,Overcast,330,2013-10-16 19:35:00
3:53 PM,84.9,64.9,51,29.94,-9999.0,North,5.8,-,N/A,,Unknown,350,2013-10-16 19:53:00
3:55 PM,80.6,62.6,54,29.95,10.0,North,6.9,-,N/A,,Mostly Cloudy,360,2013-10-16 19:55:00
4:15 PM,82.4,62.6,51,29.95,10.0,NNE,5.8,-,N/A,,Mostly Cloudy,30,2013-10-16 20:15:00
4:35 PM,82.4,64.4,54,29.95,10.0,North,4.6,-,N/A,,Mostly Cloudy,10,2013-10-16 20:35:00
4:53 PM,84.0,64.0,51,29.93,-9999.0,North,3.5,-,N/A,,Unknown,360,2013-10-16 20:53:00
4:55 PM,80.6,64.4,58,29.94,10.0,NE,3.5,-,N/A,,Scattered Clouds,50,2013-10-16 20:55:00
5:15 PM,80.6,62.6,54,29.94,10.0,NE,4.6,-,N/A,,Clear,40,2013-10-16 21:15:00
5:35 PM,80.6,62.6,54,29.94,10.0,Calm,Calm,-,N/A,,Clear,0,2013-10-16 21:35:00
5:53 PM,84.0,64.0,51,29.92,-9999.0,Calm,Calm,-,N/A,,Unknown,0,2013-10-16 21:53:00
5:55 PM,80.6,62.6,54,29.94,10.0,North,4.6,-,N/A,,Clear,350,2013-10-16 21:55:00
6:15 PM,80.6,62.6,54,29.94,10.0,NNE,3.5,-,N/A,,Clear,20,2013-10-16 22:15:00
6:35 PM,78.8,62.6,57,29.95,10.0,North,3.5,-,N/A,,Clear,360,2013-10-16 22:35:00
6:53 PM,80.1,64.9,60,29.94,-9999.0,Calm,Calm,-,N/A,,Unknown,0,2013-10-16 22:53:00
6:55 PM,78.8,64.4,61,29.95,10.0,Calm,Calm,-,N/A,,Clear,0,2013-10-16 22:55:00
7:15 PM,75.2,64.4,69,29.95,10.0,Calm,Calm,-,N/A,,Clear,0,2013-10-16 23:15:00
7:35 PM,73.4,64.4,73,29.95,10.0,Calm,Calm,-,N/A,,Clear,0,2013-10-16 23:35:00
7:53 PM,73.9,66.9,79,29.94,-9999.0,SSW,3.5,-,N/A,,Unknown,210,2013-10-16 23:53:00
7:55 PM,71.6,66.2,83,29.96,10.0,Calm,Calm,-,N/A,,Clear,0,2013-10-16 23:55:00
8:15 PM,71.6,66.2,83,29.96,10.0,Calm,Calm,-,N/A,,Clear,0,2013-10-17 00:15:00
8:35 PM,71.6,68.0,88,29.97,10.0,Calm,Calm,-,N/A,,Clear,0,2013-10-17 00:35:00
8:53 PM,71.1,66.9,87,29.96,-9999.0,Calm,Calm,-,N/A,,Unknown,0,2013-10-17 00:53:00
8:55 PM,69.8,66.2,88,29.97,10.0,Calm,Calm,-,N/A,,Clear,0,2013-10-17 00:55:00
9:15 PM,69.8,66.2,88,29.98,10.0,Calm,Calm,-,N/A,,Clear,0,2013-10-17 01:15:00
9:35 PM,69.8,66.2,88,29.98,10.0,Calm,Calm,-,N/A,,Clear,0,2013-10-17 01:35:00
9:53 PM,70.0,66.0,87,29.97,-9999.0,Calm,Calm,-,N/A,,Unknown,0,2013-10-17 01:53:00
9:55 PM,68.0,64.4,88,29.99,10.0,Calm,Calm,-,N/A,,Clear,0,2013-10-17 01:55:00
10:15 PM,68.0,64.4,88,29.99,5.0,Calm,Calm,-,N/A,,Clear,0,2013-10-17 02:15:00
10:35 PM,68.0,64.4,88,30.00,7.0,Calm,Calm,-,N/A,,Clear,0,2013-10-17 02:35:00
10:53 PM,68.0,64.9,90,29.99,-9999.0,Calm,Calm,-,N/A,,Unknown,0,2013-10-17 02:53:00
10:55 PM,66.2,64.4,94,30.00,2.5,Calm,Calm,-,N/A,,Clear,0,2013-10-17 02:55:00
11:15 PM,68.0,64.4,88,30.00,10.0,Calm,Calm,-,N/A,,Scattered Clouds,0,2013-10-17 03:15:00
11:35 PM,66.2,64.4,94,29.99,7.0,Calm,Calm,-,N/A,,Scattered Clouds,0,2013-10-17 03:35:00
11:53 PM,68.0,64.9,90,29.98,-9999.0,Calm,Calm,-,N/A,,Unknown,0,2013-10-17 03:53:00
11:55 PM,66.2,64.4,94,29.99,10.0,Calm,Calm,-,N/A,,Scattered Clouds,0,2013-10-17 03:55:00